Torna al catalogo

BEIDOU 12

AttivoNavigazioneMEO
NORAD 38250·PAYLOAD·🇨🇳 China

Lanciato Apr 29, 2012 da Xichang Satellite Launch Center

Loading…

Prossimi Passaggi (prossime 24 ore)

TLE

AggiornatoSource: Space-Track

Epoca: Sep 14, 2026, 07:46 UTC

1 38250U 12018A   26257.32370984 -.00000064  00000-0  00000-0 0  9999
2 38250  55.6774 301.8643 0023020 272.6948  87.1052  1.86229850 97600

Traccia BEIDOU 12 in tempo reale con AllMySat

Download on the App Store